Location: Apata
(8.4000°N, 4.4833°E)
Time: 10:16:31
(UTC+00:00)

Daily predictions for brighter satellites

Satellite Brightness Start Highest point End
(mag) Time Altitude Azimuth Time Altitude Azimuth Time Altitude Azimuth
Cosmos 1939 Rocket 3.9 18:06:06 10° SE 18:09:28 25° ENE 18:12:47 10° NNE
Cosmos 494 Rocket 4.0 18:05:33 10° SSW 18:10:39 89° ESE 18:15:47 10° NNE
Okean-O 2.6 18:06:47 10° SSE 18:11:12 77° ENE 18:15:36 10° N
Cosmos 1733 4.1 18:09:04 10° SSE 18:12:18 27° E 18:15:29 10° NE
Cosmos 1271 Rocket 3.8 18:11:28 10° NNE 18:14:24 22° E 18:17:21 10° SE
Ariane H10 2.9 18:12:08 10° WSW 18:17:07 47° S 18:19:53 10° ESE
Cosmos 1025 Rocket 3.2 18:13:21 10° N 18:17:37 76° W 18:21:52 10° S
CZ-4 R/B 4.4 18:17:26 10° SSE 18:21:34 72° E 18:25:42 10° N
In-Cosmos 22 4.3 18:22:12 10° N 18:27:33 52° E 18:32:45 10° SSE
Cosmos 1766 3.2 18:23:51 10° S 18:27:50 83° E 18:31:49 10° N
CZ-2D R/B 3.6 18:24:30 10° SSE 18:28:09 42° ENE 18:31:46 10° N
S3M 4.0 18:22:23 10° S 18:28:40 76° E 18:35:01 10° N
Milstar 3 Cent rocket 4.4 18:20:56 10° NW 18:28:59 48° NNE 18:43:04 15° E
SL-4 R/B 3.5 18:27:23 10° SSE 18:29:06 13° SE 18:29:36 13° ESE
STARLINK-1170 3.1 18:27:31 10° NW 18:30:55 81° SW 18:34:19 10° SSE
YAOGAN 1 2.6 18:27:52 10° SSE 18:32:06 57° ENE 18:36:20 10° N
NOSS 3-3 (A) 4.2 18:27:21 10° S 18:32:25 36° ESE 18:37:33 10° NE
NOSS 3-3 (C) 4.2 18:27:29 10° S 18:32:31 35° ESE 18:37:37 10° NE
Cosmos 1452 Rocket 4.3 18:28:05 10° NNE 18:32:41 31° ENE 18:37:17 10° SE
Cosmos 1455 Rocket 3.0 18:30:26 10° S 18:34:41 60° E 18:38:55 10° NNE
Ariane H10-3 1.5 18:31:39 10° WSW 18:35:13 51° S 18:37:19 18° ESE
Cosmos 1674 3.7 18:35:11 10° NNE 18:38:12 23° E 18:40:02 16° SE
SL-16 R/B 2.6 18:34:52 10° SSW 18:40:29 68° WNW 18:46:06 10° N
Delta 168 3.5 18:38:08 10° WNW 18:42:05 62° SSW 18:46:39 16° SE
STARLINK-1149 3.9 18:39:48 10° NW 18:43:07 50° SW 18:46:27 10° SSE
CSL-04 Rocket 3.6 18:39:10 10° SSE 18:44:29 63° ENE 18:49:44 10° N
Atlas 2A Centaur Rocket 1.9 18:43:52 10° WNW 18:46:26 34° SSW 18:47:21 22° SSE
Centaur AC-119 4.5 18:21:21 10° WSW 18:47:20 73° SSE 18:51:27 20° ENE
NOAA 11 4.5 18:45:01 10° S 18:50:25 71° WSW 18:55:48 10° NNW
Lacrosse 4 Rocket 2.2 18:47:44 10° NNW 18:52:02 56° WSW 18:56:13 10° S
Meteor 2-14 Rocket 4.3 18:46:12 10° N 18:52:14 76° E 18:58:19 10° S
GEOS 3 Rocket 3.8 18:48:46 17° SE 18:52:22 46° ENE 18:57:13 10° NNW
GPS 2-17 Rocket1 4.1 18:50:05 10° NW 18:54:32 36° NNE 18:56:42 24° ENE
H-2A R/B 3.2 18:55:58 24° ENE 18:55:58 24° ENE 19:00:10 10° NNE
Cosmos 883 Rocket 4.4 18:52:51 10° S 18:58:59 80° E 19:05:09 10° N
Cosmos 1892 Rocket 3.9 18:57:26 10° NNE 19:01:40 42° E 19:03:03 32° SE
Cosmos 1544 Rocket 3.6 18:57:43 10° S 19:02:03 80° W 19:06:25 10° N
STARLINK-1162 4.3 18:58:21 10° NNW 19:02:11 35° NE 19:02:23 35° ENE
Cosmos 1603 4.1 18:57:03 10° S 19:02:15 37° ESE 19:05:27 20° NE
Lacrosse 5 3.6 18:58:02 10° WNW 19:02:31 32° WSW 19:07:01 10° S
Atlas Centaur 2 2.7 18:57:42 10° NW 19:02:45 33° NNE 19:04:06 28° NE
HJ-1C 3.2 19:04:34 61° E 19:04:40 61° E 19:07:56 10° N
STARLINK-1129 4.2 19:01:19 10° NNW 19:05:07 36° NE 19:05:07 36° NE
CZ-3A R/B 4.4 18:33:39 10° WNW 19:05:19 39° NNW 19:11:15 17° NE
Meteor 2-21 Rocket 4.3 18:59:41 10° N 19:05:45 85° E 19:11:52 10° S
Meteor 2-16 Rocket 4.3 19:00:23 10° N 19:06:29 68° E 19:12:34 10° SSE
STARLINK-1157 4.1 19:03:14 10° NNW 19:07:09 40° NE 19:07:10 40° NE
Cosmos 1242 Rocket 4.3 19:06:17 10° NNW 19:09:26 32° W 19:12:37 10° SSW
Okean 1-7 Rocket 3.9 19:05:22 10° NNE 19:09:00 42° ENE 19:09:00 42° ENE
STARLINK-1134 4.1 19:06:12 10° NNW 19:09:55 42° NE 19:09:55 42° NE
Hubble Space Telescope 2.7 19:08:39 10° SSW 19:10:23 17° S 19:10:23 17° S
STARLINK-1159 3.9 19:08:07 10° NNW 19:11:57 47° NE 19:11:57 47° NE
Longmarch 3A Rocket 4.5 15:35:16 10° WNW 19:12:18 82° NNE 19:17:21 32° ESE
STARLINK-1135 3.9 19:11:05 10° NNW 19:14:42 48° NE 19:14:42 48° NE
NOSS 3-1 (C) 4.2 19:07:38 10° NNW 19:16:15 77° ENE 19:23:54 15° SSE
DMSP B5D2-2 4.2 19:11:55 10° NNE 19:16:56 48° ESE 19:21:57 10° S
STARLINK-1171 3.8 19:13:01 10° NNW 19:16:44 53° NNE 19:16:44 53° NNE
STARLINK-1141 3.9 19:15:59 10° NNW 19:19:28 52° NNE 19:19:28 52° NNE
STARLINK-1155 3.8 19:17:57 10° NNW 19:21:32 57° NNE 19:21:32 57° NNE
CZ-4 R/B 4.4 19:21:40 10° SW 19:23:59 15° W 19:26:18 10° WNW
ARGOS 4.2 19:26:02 29° NNE 19:26:02 29° NNE 19:29:00 10° N
Cosmos 1745 Rocket 3.9 19:18:12 10° N 19:24:25 85° W 19:30:35 10° S
Delta 198 4.4 19:17:59 10° WSW 19:24:25 76° SSE 19:26:23 49° E
Cosmos 2251 Rocket 3.4 19:19:31 10° S 19:24:48 77° ESE 19:30:08 10° NNE
STARLINK-1140 4.0 19:20:55 10° NNW 19:24:16 54° N 19:24:16 54° N
CZ-2C R/B 3.8 19:21:32 10° N 19:26:12 78° WNW 19:30:46 10° SSW
STARLINK-1166 3.9 19:22:52 10° NNW 19:26:18 58° N 19:26:18 58° N
Meteor 2-5 Rocket 3.7 19:23:56 10° N 19:29:28 78° W 19:34:59 10° S
STARLINK-1156 4.1 19:25:52 10° NNW 19:29:04 52° NNW 19:29:04 52° NNW
Cosmos 1470 3.5 19:27:24 10° SSW 19:31:08 49° W 19:34:51 10° N
STARLINK-1165 4.1 19:27:52 10° NW 19:31:07 54° NNW 19:31:07 54° NNW
ATLAS 3B CENTAUR R/B 3.6 19:30:14 10° NNW 19:31:50 13° N 19:31:50 13° N
Cosmos 2315 Rocket 4.5 19:28:09 10° SSW 19:34:16 60° W 19:40:27 10° N
STARLINK-1148 4.4 19:30:49 10° NW 19:33:50 47° NW 19:33:50 47° NW
STARLINK-1169 4.4 19:32:49 10° NW 19:35:53 48° NW 19:35:53 48° NW
Cosmos 2278 Rocket 2.2 19:32:08 10° NNW 19:37:47 80° WSW 19:39:15 51° S
Cosmos 1758 4.4 19:35:03 10° SSW 19:38:56 44° W 19:42:49 10° NNW
IRS-1A Rocket 4.1 19:41:52 81° SSE 19:42:10 89° ENE 19:47:47 10° NNW
CZ-2C R/B 4.0 19:44:50 37° N 19:44:50 37° N 19:47:53 10° N
Meteor 1-24 Rocket 3.6 19:39:23 10° N 19:44:43 78° W 19:44:44 78° W
Ariane Rocket 4.4 20:10:50 34° W 20:10:50 34° W 20:15:05 10° NW
H-2A R/B 4.4 20:36:35 21° WNW 20:36:35 21° WNW 20:39:17 10° NW
ATLAS 5 CENTAUR R/B 4.4 21:26:05 10° WNW 22:06:15 23° ENE 22:36:09 10° E
